RH
95 84 98 100 100 100 100 100 100 100 100 100 100 100 100 100 97 100 92 69 64 52 42 36 32 31 31 30 35 36 31 32 36 39 40 44 42 49 48 43 40 61 96 48 56 100 99
95 100 98 100 100 100 100 100 100 94 100 98 92 100 100 100 100 100 100 100 92 79 66 61 43 38 37 34 34 36 32 29 33 33 34 35 34 35 37 34 35 44 65 41 100 98 87
100 100 66 75 100 88 100 100 100 100 100 100 100 100 100 100 100 100 100 98 100 100 94 78 66 53 54 34 40 44 36 31 33 31 33 32 33 34 34 32 35 44 53 86 100 100 100
100 100 92 90 62 97 100 100 100 92 100 100 100 86 98 97 100 100 100 100 100 98 83 84 92 74 76 60 41 50 44 37 34 32 36 33 36 38 36 36 45 74 79 99 100 100 100
54 81 100 100 100 100 98 100 100 100 100 100 100 100 100 93 100 100 100 90 100 100 100 100 95 84 99 84 80 77 80 71 55 51 50 42 44 54 58 65 82 57 84 100 100 75 94
19 36 66 94 100 100 100 100 100 100 100 100 100 96 68 100 100 97 95 100 100 100 97 92 100 100 100 100 98 94 97 74 65 69 70 76 74 93 98 66 78 90 100 100 100 89 62
9 8 23 49 82 100 100 100 100 100 100 100 100 100 84 100 85 95 95 94 100 100 93 100 93 87 78 100 100 100 98 100 100 98 100 100 92 100 100 92 100 100 100 99 74 77 60
10 10 8 8 32 55 87 96 100 100 100 100 100 100 100 100 100 100 97 100 87 98 96 82 100 100 100 100 100 100 100 100 100 100 100 100 100 100 100 100 100 92 100 95 91 88 88
10 10 10 10 12 16 31 45 66 96 100 100 100 100 100 100 100 100 100 100 91 86 65 91 94 92 96 84 58 100 100 100 100 100 100 100 100 100 100 100 100 87 91 100 100 100 71
20 14 10 10 11 13 12 13 20 40 70 97 100 100 100 100 100 100 100 100 93 94 85 77 87 74 95 79 77 82 71 84 73 98 100 67 94 85 76 82 86 100 100 74 88 83 65
40 34 24 18 15 13 11 10 10 14 16 29 79 96 100 100 100 100 100 100 92 84 67 73 74 75 74 85 87 81 76 68 67 74 75 78 75 80 79 94 89 85 100 78 67 61 54
40 32 31 30 28 22 16 13 11 10 11 13 16 38 83 95 100 100 100 100 100 96 66 50 66 73 84 86 70 65 65 70 64 70 68 72 74 66 81 68 78 85 91 72 64 68 62
47 42 38 33 31 28 29 26 22 17 15 13 12 13 14 46 70 87 100 100 100 85 56 60 56 75 97 87 96 75 65 73 71 68 66 61 69 69 69 68 67 64 71 68 59 67 72
36 34 37 40 38 32 28 23 24 28 30 20 14 13 15 17 16 33 35 64 88 83 85 93 79 91 90 100 100 100 80 74 67 60 67 63 57 52 52 51 54 51 63 62 59 64 61
29 32 29 27 31 35 36 39 29 22 21 24 24 20 16 22 25 32 27 24 35 59 82 100 100 74 68 69 100 100 98 100 86 68 63 58 40 37 46 55 45 48 42 48 43 48 40
30 28 29 33 31 27 26 31 32 32 28 23 18 16 22 32 26 33 27 16 18 28 35 37 89 100 96 100 93 99 100 100 100 90 69 57 52 41 36 41 50 50 51 37 34 36 38
41 37 30 28 27 30 30 29 27 24 24 22 21 16 23 25 24 26 16 9 8 10 17 21 22 36 82 100 100 100 100 100 100 100 100 86 67 71 47 60 53 47 41 33 33 42 43
40 40 38 36 33 31 34 29 31 27 24 19 17 18 23 29 25 21 14 15 12 10 11 15 17 21 25 33 73 100 100 100 100 100 100 100 100 83 89 74 58 44 57 52 49 49 42
39 41 42 46 49 58 45 39 43 34 28 26 22 20 25 32 20 17 16 17 16 15 16 13 14 17 20 21 18 22 66 94 100 100 100 100 100 100 100 92 76 60 62 67 63 51 44
46 48 47 57 59 52 45 43 44 41 33 27 23 20 29 32 28 24 18 15 14 14 15 15 15 15 17 16 17 17 20 25 37 65 92 100 98 100 100 100 100 87 84 65 64 67 24
46 56 56 56 71 52 51 46 41 46 37 32 23 19 29 27 27 28 28 26 16 15 13 14 13 12 14 17 18 16 17 18 18 21 27 37 57 84 84 85 89 86 77 72 59 32 16
36 51 47 48 45 38 38 37 25 24 22 14 11 10 11 11 13 16 17 18 17 17 14 11 12 13 14 15 16 18 18 19 19 18 18 19 29 24 32 47 60 67 62 40 26 17 14
15 16 17 17 17 16 15 15 14 12 10 7 7 7 7 7 8 8 9 11 11 13 12 13 13 15 12 12 14 15 16 18 16 16 16 16 16 17 19 18 20 27 27 34 22 15 13
12 12 12 12 12 11 11 10 10 9 8 7 7 7 6 7 7 6 8 9 10 12 12 17 16 16 14 13 12 12 15 15 15 16 16 16 17 16 16 16 16 20 16 16 16 14 14
11 11 11 11 10 9 9 9 9 8 8 7 7 6 6 7 7 6 8 8 11 12 13 16 18 19 26 18 16 18 20 16 15 19 19 16 15 16 19 21 19 21 20 18 15 15 13
11 10 9 9 8 8 8 8 8 7 6 6 6 6 5 6 7 8 8 9 9 12 13 14 19 26 46 40 41 87 62 76 78 41 42 32 44 32 33 25 23 28 22 18 19 17 16
8 8 8 8 8 8 8 8 8 7 7 6 7 6 6 6 8 9 9 10 8 10 12 17 42 47 93 100 100 100 100 98 99 95 74 62 54 52 69 61 58 66 40 25 20 25 18
9 10 10 9 9 8 8 8 8 7 6 7 6 6 6 8 9 10 9 10 11 11 17 46 100 100 100 100 100 100 100 100 100 100 76 69 69 51 55 55 87 61 49 42 36 31 26
9 9 9 9 8 8 7 6 6 5 5 5 5 5 6 8 10 9 10 14 23 20 70 100 98 100 100 100 100 100 97 87 85 76 69 75 90 100 100 89 54 39 34 34 34 31 38
Wind_Speed
88 88 87 86 89 84 87 81 81 80 77 73 74 72 72 69 66 66 62 63 62 60 58 55 53 51 50 50 48 48 46 42 40 40 40 41 43 43 43 42 44 47 43 48 47 52 45
94 92 93 88 92 90 88 87 90 85 82 82 77 79 76 77 73 71 69 68 65 66 64 60 57 55 53 55 53 53 50 47 48 47 46 47 48 49 48 48 47 48 46 48 47 49 48
92 95 94 93 92 93 92 92 95 93 88 85 82 82 81 83 81 76 74 73 71 70 68 65 63 60 59 60 56 58 56 55 55 52 50 51 50 51 54 51 49 51 51 45 48 49 49
84 79 95 93 96 100 95 96 94 95 94 95 90 87 85 86 85 79 82 81 79 71 73 72 70 64 68 63 62 62 61 61 59 56 56 53 52 51 54 55 53 52 54 49 52 52 51
83 84 87 88 99 100 103 100 99 96 96 98 97 93 91 91 89 87 88 86 89 79 81 76 76 70 74 69 63 64 66 67 61 59 61 58 57 56 58 55 56 56 58 54 60 60 59
88 86 87 89 91 101 100 104 102 102 104 105 100 101 100 97 95 95 95 91 93 83 82 81 82 74 77 80 72 71 72 69 65 64 63 63 57 60 64 55 60 61 61 66 64 66 67
95 93 91 91 88 94 94 97 103 104 106 109 109 106 106 104 102 98 98 99 95 96 90 90 84 80 78 82 77 76 78 76 71 67 70 68 58 64 68 61 62 63 65 70 66 67 66
100 100 98 96 95 93 95 100 97 103 104 103 108 114 110 110 108 107 105 103 105 99 96 95 88 85 89 89 80 83 84 78 75 74 71 73 67 72 73 70 68 71 71 73 70 67 65
102 103 102 100 98 99 98 97 99 99 108 101 102 106 109 111 111 115 112 113 106 107 104 102 98 93 96 91 84 87 88 87 82 80 81 82 74 76 74 75 74 72 71 75 72 70 69
102 102 104 104 105 105 105 104 104 103 102 106 107 102 104 109 112 113 117 119 115 113 112 101 105 99 98 98 92 93 92 87 87 83 85 78 75 80 78 75 77 73 74 76 76 77 74
103 104 104 106 107 109 109 109 109 109 108 108 109 108 106 103 108 110 117 120 119 121 114 107 102 104 101 101 101 101 98 95 92 89 88 83 82 82 81 79 78 78 80 79 80 80 77
107 108 108 108 109 110 111 112 112 113 113 113 113 113 112 108 106 107 117 125 122 125 117 110 107 108 105 105 107 104 103 101 100 98 94 91 89 87 84 84 82 84 84 85 86 86 84
112 111 111 111 113 113 113 113 113 115 117 119 119 117 115 114 109 115 114 114 118 126 116 112 117 115 113 110 109 104 101 102 100 100 99 98 95 92 89 90 90 89 90 90 89 88 85
118 117 117 116 116 117 116 116 116 117 118 121 122 122 119 115 115 120 121 121 123 110 110 112 117 114 112 112 110 110 110 103 100 95 95 92 92 90 88 89 88 87 88 87 87 83 74
117 117 119 121 121 121 120 120 120 122 124 125 124 124 121 118 118 122 127 130 126 110 102 103 114 120 116 111 107 107 103 101 99 98 94 90 81 84 81 82 77 78 78 79 73 70 66
119 120 120 121 122 123 125 127 126 127 128 128 127 126 119 122 126 127 135 138 130 117 108 110 114 111 110 107 110 108 105 100 98 97 94 91 88 87 86 79 78 77 78 72 65 63 62
120 119 121 125 126 127 127 126 129 134 134 133 130 127 119 129 135 137 137 135 130 118 116 118 114 117 107 105 107 100 96 96 91 86 89 94 93 90 85 81 77 72 70 66 63 59 53
123 122 122 123 125 128 128 131 131 131 132 133 136 134 127 135 145 140 137 134 132 126 124 125 118 117 115 110 108 102 93 90 89 89 84 77 81 81 78 77 73 68 61 60 58 56 53
126 125 124 122 123 122 126 127 127 138 140 139 137 134 131 136 146 143 140 139 141 131 131 127 123 120 119 113 108 105 100 97 95 90 83 81 75 67 65 65 62 64 61 58 56 57 56
123 123 125 123 123 121 120 121 126 127 127 126 128 130 124 129 137 143 146 146 149 141 141 136 130 131 122 115 111 106 99 97 98 98 95 90 83 79 76 67 60 57 60 63 61 59 60
121 121 124 122 120 116 119 118 118 120 120 122 123 125 122 125 132 140 141 143 150 153 149 143 141 135 117 112 112 110 100 100 98 96 97 95 92 89 87 84 79 74 74 68 63 63 64
109 115 117 117 117 117 118 120 117 118 118 117 118 115 117 116 125 133 137 142 146 152 148 148 145 122 122 120 114 111 108 105 103 102 96 94 94 92 92 88 85 84 77 73 70 68 69
100 101 103 105 106 106 105 107 109 111 111 112 109 111 111 109 114 124 125 130 143 134 143 139 134 131 130 121 121 121 114 112 110 106 102 101 95 92 92 92 88 84 79 81 75 72 70
92 93 95 97 99 101 101 101 101 100 101 99 96 101 104 98 108 114 114 117 115 123 120 110 117 116 114 124 128 126 119 116 114 114 109 102 101 97 93 91 87 85 90 83 78 75 72
88 91 93 95 96 96 96 96 94 92 92 91 90 93 94 89 96 97 98 103 104 113 111 104 99 94 95 105 113 105 102 106 109 103 98 104 106 101 92 88 86 86 82 84 81 78 77
85 87 88 88 89 89 90 90 88 87 88 86 86 87 87 83 79 85 90 96 101 97 100 96 93 92 86 86 82 80 82 68 72 90 86 88 84 89 85 88 85 76 82 84 77 73 71
79 79 79 79 80 81 80 81 80 81 83 81 81 81 82 74 78 82 84 89 94 91 88 81 84 81 64 63 66 79 69 67 70 69 74 73 76 71 63 68 62 57 58 53 57 54 61
71 70 71 72 73 74 76 76 76 78 78 75 77 75 74 71 79 86 88 86 84 81 73 72 80 80 76 77 82 65 69 72 64 54 61 63 61 62 60 62 55 55 54 47 53 49 49
66 66 67 68 70 70 71 71 70 72 71 71 70 71 68 75 81 83 80 84 79 67 69 76 77 83 85 80 64 67 60 55 56 62 61 52 48 46 52 59 63 56 53 51 51 51 49
Wind_Direction
234 235 234 235 232 232 238 239 237 241 236 237 241 237 237 236 237 239 238 239 240 242 244 245 243 243 245 246 250 255 258 263 268 271 275 278 282 287 290 295 299 307 314 317 323 335 335
233 236 237 235 232 234 233 241 240 237 239 239 239 241 241 241 239 238 241 240 240 241 242 244 246 247 250 253 255 256 259 260 265 268 271 275 280 284 288 292 295 301 304 310 328 322 323
227 231 237 237 232 231 233 235 236 238 239 237 241 241 242 246 242 241 242 241 242 244 242 243 243 246 248 250 254 257 260 264 265 268 271 274 277 282 286 288 291 296 301 307 319 322 316
236 229 231 235 238 236 233 234 235 236 237 240 239 242 241 244 243 241 245 245 246 243 249 250 245 244 247 250 251 254 259 258 261 265 267 269 272 275 278 283 289 298 296 305 310 310 313
238 238 228 228 229 236 237 235 234 234 237 236 239 240 241 242 242 245 247 250 247 249 253 252 249 249 249 250 250 256 256 258 258 259 264 265 267 271 274 281 287 295 296 301 302 304 305
239 238 238 233 227 227 231 235 237 238 238 238 237 238 238 241 241 243 244 247 247 249 250 253 253 249 253 254 253 255 256 258 258 263 266 266 270 274 274 287 287 289 295 299 301 300 300
239 239 238 240 239 229 228 230 234 236 239 240 238 238 238 239 240 241 245 245 245 247 246 247 253 251 255 254 256 259 262 258 260 263 265 268 270 274 276 283 283 289 293 292 295 298 298
238 240 239 238 237 239 238 235 230 231 232 233 240 241 239 241 240 240 241 245 245 245 247 245 245 247 251 255 260 259 258 259 263 263 268 270 273 274 280 281 286 285 285 288 291 291 295
238 238 239 240 239 239 240 239 240 237 231 233 231 235 237 241 241 239 241 243 245 245 245 249 245 246 246 248 248 252 255 255 259 263 265 266 270 270 274 276 278 282 284 282 286 291 293
239 239 239 239 240 240 240 239 240 241 240 236 231 233 233 238 239 241 244 243 244 246 244 247 252 246 248 249 248 251 251 253 256 259 259 261 265 266 268 273 277 276 281 283 289 290 293
238 239 240 241 240 240 241 241 242 241 242 241 241 242 240 234 235 237 241 242 242 244 244 244 248 251 250 251 250 252 253 254 254 254 260 263 262 265 269 272 272 274 281 283 285 290 293
240 240 240 239 240 241 241 241 242 242 243 243 244 243 242 242 238 241 239 238 241 243 244 247 248 250 251 252 255 253 255 254 256 257 258 261 261 264 268 269 273 275 278 280 282 285 289
240 240 240 241 241 241 241 241 242 242 243 244 245 245 244 244 243 247 242 243 240 241 243 247 248 247 250 252 254 255 253 255 256 258 257 257 262 264 267 268 273 275 277 279 283 285 288
243 243 241 241 241 242 242 242 242 242 243 244 245 246 247 246 246 247 245 246 244 238 240 243 245 246 247 249 252 254 257 255 257 259 259 259 261 264 269 269 272 276 277 281 285 285 290
245 245 245 245 244 243 243 244 244 242 242 242 242 244 245 247 248 250 251 249 248 246 242 241 242 244 246 249 249 252 254 257 258 261 262 261 261 265 266 267 271 274 278 279 282 284 284
245 246 246 248 249 247 246 245 244 244 245 244 243 242 242 247 248 248 249 249 249 247 247 246 247 241 240 242 246 249 251 254 256 260 261 262 263 266 266 267 272 275 276 278 280 279 284
246 246 246 247 249 250 249 246 248 247 245 245 246 245 245 249 248 248 248 250 249 249 249 248 248 249 243 242 240 243 247 250 251 252 257 262 263 266 268 270 271 273 273 276 278 279 282
246 247 247 248 248 247 250 250 250 250 248 247 247 245 245 250 248 247 246 249 249 246 245 247 247 250 250 245 244 242 241 247 249 251 253 254 260 264 267 268 270 270 272 274 274 276 280
246 248 249 249 249 250 250 250 249 251 251 251 251 249 249 250 251 249 247 247 249 247 247 245 246 246 248 249 246 247 243 248 249 251 251 253 251 256 261 263 263 265 266 270 273 276 282
248 247 249 250 250 251 250 251 251 252 252 251 251 248 247 249 249 249 249 245 247 245 245 245 243 244 244 247 249 249 248 249 250 252 254 253 253 256 259 258 259 261 263 269 277 280 281
249 249 250 251 252 252 254 253 254 255 254 252 248 246 247 245 245 246 246 247 245 247 243 245 244 243 245 245 249 251 250 250 250 250 253 254 256 258 260 263 265 268 271 271 272 276 282
248 250 252 253 253 252 253 253 251 252 250 248 248 247 246 244 244 245 245 247 247 246 247 245 247 244 245 246 247 248 251 251 251 252 254 256 256 257 260 262 266 268 271 273 276 276 279
246 247 248 249 250 250 249 249 248 248 247 247 247 245 246 242 241 242 242 245 247 250 249 249 248 248 245 244 246 246 247 249 253 255 257 258 259 260 261 263 265 268 271 271 274 277 279
249 249 249 249 249 248 248 248 249 249 248 247 245 244 242 239 238 241 240 240 241 242 246 245 246 248 247 246 247 247 249 249 250 253 256 257 259 260 262 265 268 270 271 275 276 278 282
247 247 247 246 247 247 248 248 248 248 247 245 243 241 240 236 237 237 235 235 235 235 235 237 238 238 234 237 242 242 242 245 247 249 253 256 258 261 264 266 269 274 275 276 278 280 281
245 245 245 246 246 246 246 246 245 244 244 242 240 239 238 233 231 231 230 231 230 231 231 231 228 229 228 229 231 234 236 233 235 245 245 249 252 258 261 263 266 265 271 276 278 283 285
246 246 246 246 245 245 244 243 242 241 240 239 237 235 233 227 223 221 221 224 229 226 229 227 222 224 219 211 207 223 229 229 232 238 245 247 252 254 252 257 264 264 266 272 279 269 283
246 245 244 243 242 241 241 240 239 238 237 235 233 230 227 218 216 215 217 219 223 222 219 213 207 204 200 205 210 226 236 228 236 239 246 248 247 253 251 252 251 263 264 265 270 277 273
243 243 243 242 240 239 237 236 234 233 232 229 227 224 217 211 211 214 214 212 212 210 204 204 205 206 210 218 220 219 238 234 239 239 242 240 245 236 232 240 253 262 260 263 265 270 265